Weather History for Mount Ida, AR

Change the Weather History Date:

Sunday, October 13, 2013

  Actual Average (KHOT) Record (KHOT)
Temperature  
Mean Temperature 70 °F -  
Max Temperature 78 °F 78 °F 96 °F (1963)
Min Temperature 60 °F 52 °F 36 °F (1977)
Cooling Degree Days 5    
Growing Degree Days 20 (Base 50)    
Moisture  
Dew Point 64 °F    
Average Humidity 91    
Maximum Humidity 100    
Minimum Humidity 56    
Precipitation  
Precipitation 0.00 in - - ()
Sea Level Pressure  
Sea Level Pressure 30.18 in    
Wind  
Wind Speed 1 mph (East)    
Max Wind Speed 7 mph    
Max Gust Speed -    
Visibility 5 miles    
Events Fog , Rain    
Averages and records for this station are not official NWS values.
T = Trace of Precipitation, MM = Missing Value Source: NWS Daily Summary

Daily Weather History Graph

Daily Weather History Graph

Search for Another Location

Airport:

Trip Planner

Search our weather history database for the weather conditions in past years. The results will help you decide how hot, cold, wet, or windy it might be!

Date:

Astronomy

Oct. 13, 2013 Rise Set
Actual Time 7:18 AM CDT 6:41 PM CDT
Civil Twilight 6:53 AM CDT 7:07 PM CDT
Nautical Twilight 6:23 AM CDT 7:36 PM CDT
Astronomical Twilight 5:54 AM CDT 8:05 PM CDT
Moon 3:21 PM CDT (10/13) 1:42 AM CDT (10/13)
Length of Visible Light 12h 14m
Length of Day
11h 23m
Waxing Gibbous, 69% of the Moon is Illuminated
Oct 13
Waxing Gibbous
Oct 18
Full
Oct 26
Last Quarter
Nov 3
New
Nov 9
First Quarter

Hourly Weather History & Observations

Time (CDT) Temp. Dew Point Humidity Pressure Visibility Wind Dir Wind Speed Gust Speed Precip Events Conditions
12:13 AM 64.0 °F 64.0 °F 100% 30.11 in 0.2 mi Calm Calm - N/A Fog Fog
12:20 AM 64.0 °F 63.0 °F 96% 30.11 in 0.2 mi Calm Calm - N/A Fog Fog
12:28 AM 64.0 °F 63.0 °F 96% 30.11 in 0.2 mi Calm Calm - N/A Fog Fog
12:36 AM 64.0 °F 63.0 °F 96% 30.11 in 0.2 mi Calm Calm - N/A Fog Fog
12:53 AM 64.0 °F 63.0 °F 96% 30.09 in 0.2 mi Calm Calm - N/A Fog Fog
1:01 AM 64.0 °F 64.0 °F 100% 30.11 in 0.5 mi Calm Calm - N/A Fog Fog
1:22 AM 64.0 °F 64.0 °F 100% 30.11 in 0.2 mi Calm Calm - N/A Fog Fog
1:53 AM 64.0 °F 64.0 °F 100% 30.10 in 0.2 mi Calm Calm - N/A Fog Fog
2:33 AM 64.0 °F 64.0 °F 100% 30.14 in 0.2 mi Calm Calm - N/A Fog Fog
2:45 AM 64.0 °F 64.0 °F 100% 30.14 in 0.2 mi Calm Calm - N/A Fog Fog
2:53 AM 64.9 °F 64.0 °F 97% 30.12 in 0.2 mi Calm Calm - N/A Fog Fog
3:20 AM 64.9 °F 64.9 °F 100% 30.14 in 0.5 mi Calm Calm - N/A Fog Fog
3:36 AM 64.9 °F 64.9 °F 100% 30.14 in 1.8 mi Calm Calm - N/A   Overcast
3:40 AM 64.9 °F 64.9 °F 100% 30.14 in 3.0 mi Calm Calm - N/A   Overcast
3:53 AM 66.0 °F 64.9 °F 96% 30.12 in 5.0 mi Calm Calm - N/A   Overcast
4:05 AM 66.0 °F 64.9 °F 96% 30.15 in 4.0 mi Calm Calm - N/A   Overcast
4:15 AM 64.9 °F 64.9 °F 100% 30.15 in 2.0 mi Calm Calm - N/A   Overcast
4:28 AM 64.9 °F 64.9 °F 100% 30.16 in 2.5 mi Calm Calm - N/A   Overcast
4:44 AM 64.9 °F 64.9 °F 100% 30.17 in 3.0 mi Calm Calm - N/A   Overcast
4:53 AM 64.9 °F 64.9 °F 100% 30.15 in 2.5 mi Calm Calm - N/A   Overcast
5:03 AM 64.9 °F 64.9 °F 100% 30.17 in 4.0 mi Calm Calm - N/A   Overcast
5:46 AM 66.0 °F 64.9 °F 96% 30.18 in 7.0 mi Calm Calm - N/A   Overcast
5:53 AM 66.0 °F 64.9 °F 96% 30.16 in 8.0 mi Calm Calm - N/A   Overcast
6:05 AM 64.9 °F 64.0 °F 97% 30.18 in 5.0 mi Calm Calm - N/A   Mostly Cloudy
6:17 AM 64.9 °F 64.0 °F 97% 30.18 in 1.8 mi Calm Calm - N/A   Partly Cloudy
6:22 AM 64.9 °F 64.0 °F 97% 30.19 in 2.0 mi Calm Calm - N/A   Scattered Clouds
6:34 AM 64.9 °F 64.0 °F 97% 30.19 in 2.5 mi Calm Calm - N/A   Mostly Cloudy
6:44 AM 64.9 °F 64.0 °F 97% 30.19 in 4.0 mi Calm Calm - 0.00 in Rain Light Rain
6:53 AM 64.9 °F 64.0 °F 97% 30.17 in 6.0 mi Calm Calm - 0.00 in   Mostly Cloudy
7:46 AM 64.9 °F 64.0 °F 97% 30.21 in 4.0 mi Calm Calm - N/A   Mostly Cloudy
7:53 AM 64.9 °F 64.0 °F 97% 30.19 in 4.0 mi Calm Calm - N/A   Mostly Cloudy
8:27 AM 64.9 °F 64.0 °F 97% 30.22 in 4.0 mi Calm Calm - N/A   Scattered Clouds
8:53 AM 66.0 °F 64.9 °F 96% 30.21 in 5.0 mi Calm Calm - N/A   Scattered Clouds
9:01 AM 66.9 °F 64.9 °F 93% 30.23 in 6.0 mi Variable 3.5 mph - N/A   Mostly Cloudy
9:22 AM 66.9 °F 64.9 °F 93% 30.24 in 7.0 mi East 4.6 mph - N/A   Mostly Cloudy
9:44 AM 69.1 °F 64.9 °F 87% 30.25 in 9.0 mi Variable 5.8 mph - N/A   Mostly Cloudy
9:53 AM 69.1 °F 64.0 °F 84% 30.24 in 10.0 mi North - - N/A   Mostly Cloudy
10:14 AM 69.1 °F 64.0 °F 84% 30.26 in 10.0 mi Variable 4.6 mph - N/A   Mostly Cloudy
10:41 AM 71.1 °F 63.0 °F 75% 30.27 in 10.0 mi East 4.6 mph - N/A   Scattered Clouds
10:53 AM 71.1 °F 63.0 °F 75% 30.25 in 10.0 mi Variable 6.9 mph - N/A   Scattered Clouds
11:53 AM 73.0 °F 63.0 °F 71% 30.25 in 10.0 mi North - - N/A   Partly Cloudy
12:53 PM 73.9 °F 62.1 °F 66% 30.23 in 10.0 mi Variable 6.9 mph - N/A   Clear
1:53 PM 75.9 °F 61.0 °F 60% 30.20 in 10.0 mi Variable 4.6 mph - N/A   Clear
2:53 PM 78.1 °F 62.1 °F 58% 30.17 in 10.0 mi ESE 5.8 mph - N/A   Clear
3:53 PM 78.1 °F 61.0 °F 56% 30.15 in 10.0 mi Variable 3.5 mph - N/A   Clear
4:53 PM 75.9 °F 61.0 °F 60% 30.15 in 10.0 mi Variable 4.6 mph - N/A   Clear
5:53 PM 73.0 °F 64.0 °F 73% 30.16 in 10.0 mi Calm Calm - N/A   Clear
6:53 PM 68.0 °F 64.0 °F 87% 30.18 in 10.0 mi Calm Calm - N/A   Clear
7:53 PM 66.0 °F 63.0 °F 90% 30.20 in 10.0 mi Calm Calm - 0.00 in   Clear
8:53 PM 64.9 °F 61.0 °F 87% 30.21 in 10.0 mi Calm Calm - N/A   Clear
9:53 PM 63.0 °F 61.0 °F 93% 30.22 in 8.0 mi Calm Calm - N/A   Clear
10:53 PM 62.1 °F 60.1 °F 93% 30.22 in 9.0 mi Calm Calm - N/A   Clear
11:53 PM 60.1 °F 57.9 °F 93% 30.20 in 4.0 mi Calm Calm - 0.00 in   Clear